This is the latest recevied weather packets stored in our database for station/object 9W2CEW-1. If no packets are shown the sender has not sent any weather packets the latest 10 day(s).
| Time | Temp. | Humidity | Pressure | Rain* | Wind** | Luminosity | Snow |
|---|---|---|---|---|---|---|---|
| 1777615443 | 38.33° C | 40% | 1002.6 hPa | - | - | - | - |
| 1777614639 | 38.89° C | 39% | 1003.1 hPa | - | - | - | - |
| 1777614542 | 38.89° C | 39% | 1003.1 hPa | - | - | - | - |
| 1777613642 | 39.44° C | 37% | 1003.2 hPa | - | - | - | - |
| 1777612806 | 40.56° C | 34% | 1003.8 hPa | - | - | - | - |
| 1777612742 | 40.56° C | 34% | 1003.8 hPa | - | - | - | - |
| 1777611891 | 44.44° C | 29% | 1004.2 hPa | - | - | - | - |
| 1777611842 | 44.44° C | 29% | 1004.2 hPa | - | - | - | - |
| 1777610993 | 41.11° C | 35% | 1004.7 hPa | - | - | - | - |
| 1777610942 | 41.11° C | 35% | 1004.7 hPa | - | - | - | - |
| 1777610274 | 39.44° C | 37% | 1004.7 hPa | - | - | - | - |
| 1777610041 | 39.44° C | 37% | 1004.7 hPa | - | - | - | - |
| 1777609141 | 37.78° C | 39% | 1004.8 hPa | - | - | - | - |
| 1777608303 | 40.56° C | 39% | 1004.8 hPa | - | - | - | - |
| 1777608241 | 40.56° C | 39% | 1004.8 hPa | - | - | - | - |
| 1777607341 | 40.56° C | 35% | 1005.1 hPa | - | - | - | - |
| 1777606532 | 40.56° C | 37% | 1005.2 hPa | - | - | - | - |
| 1777606441 | 40.56° C | 37% | 1005.2 hPa | - | - | - | - |
| 1777605541 | 40° C | 38% | 1005.3 hPa | - | - | - | - |
| 1777604641 | 41.11° C | 36% | 1005.5 hPa | - | - | - | - |
| 1777603741 | 38.89° C | 40% | 1005.5 hPa | - | - | - | - |
| 1777602841 | 40° C | 43% | 1005.4 hPa | - | - | - | - |
| 1777602035 | 36.11° C | 49% | 1005.4 hPa | - | - | - | - |
| 1777601941 | 36.11° C | 49% | 1005.4 hPa | - | - | - | - |
| 1777601042 | 37.78° C | 44% | 1005.3 hPa | - | - | - | - |
* Rain since midnight (hover to see other rain measurements)
** Current wind speed in m/s (hover to see current wind gust speed)